STARLINK-36584, 67547

Orbit data source: Space-Track

STARLINK-36584, 67547 is a payload satellite owned by SpaceX/Seattle (US) in SSO that was launched on Thu, 22 Jan 2026 UTC via an FALCON 9 launch vehicle from the Air Force Western Test Range (AFWTR). Payload-class satellites include a variety of spacecraft equipped with specific instruments for various scientific and technological missions. These include communications satellites like Starlink; space stations such as the ISS; scientific satellites like the Hubble; Earth observation satellites from companies like Planet Labs, Umbra, and HawkEye 360; GPS; miniature CubeSats for education and research; and military/defense satellites.

Loading next visibility...
Identifier
67547, 2026-014R
Orbit
SSO
Country
Flag of USUS
Related business
Manufacturer
SpaceX/Seattle
Mission
Operational Commercial Communications
Bus & Motor
STARLINK V2MO, Unknown motor
Mass
575 kg wet, ~530 kg dry
Launch date (UTC)
2026-01-22 (5 months ago)
Launch vehicle
FALCON 9
Launch site
Air Force Western Test Range (AFWTR)
Object type
Payload
Rocket body
Debris
Shape & HBR
Box + 2 Pan, 17.7 m
Radar Cross Section
36.964 m², Large (>1 m²)

Expand to show TLE details & history
Last TLE update: 13 hours ago

TLE from 13 hours ago
0 STARLINK-36584
1 67547U 26014R   26171.43639404  .00010940  00000-0  34064-3 0  9996
2 67547  97.2860  58.1709 0001595  93.7547 266.3878 15.33448568 24539
Epoch: 2026-06-20T10:28Z
TLE epoch observation values (Epoch: 2026-06-20T10:28:24.445Z)
Latitude
-0.00001°
Longitude
-7.582°
Altitude
468.713 km
Speed
7.632 km/s
True Right ascension
03h 52m 41s
True Declination
0° 00' 00"
Sunlit
Object was in daylight at epoch
Visualization orbit readout
Latitude
Unknown
Longitude
Unknown
Altitude
Unknown
Speed
Unknown
Apparent Right ascension
Unknown
Apparent Declination
Unknown
Sunlit
N/A
Visualization observer readout
Local Sidereal Time
10:18:59
Azimuth
Unknown
Elevation
Unknown
Doppler factor
Unknown
Orbital elements
Apogee altitude
463.566 km
Perigee altitude
461.384 km
Semi-major axis
6,840.612 km
Eccentricity
0.00016
Inclination
97.286°
RAAN
58.1709°
Arg. of periapsis
93.7547°
True anomaly
266.36956°
Mean anomaly
266.3878°
Eccentric anomaly
266.37868°
Mean motion
3.8362 °/min
Orbital period
93.84 mins
BSTAR
0.00034064
Loading maneuver chart data...
Computing Atmospheric mass density...
Loading historical data...
Loading historical data...
Loading historical data...
Loading historical data...
Loading historical data...
Loading historical data...
Loading historical data...

Documentation

Showing up to 5 results
|